Tracking 19245 objects as of 18-Aug-2018
HD Live streaming from Space Station
objects crossing your sky now

COSMOS 767

Track COSMOS 767 now!
10-day predictions
COSMOS 767 is classified as:


NORAD ID: 8291
Int'l Code: 1975-086G
Perigee: 1,463.0 km
Apogee: 1,493.0 km
Inclination: 74.0 °
Period: 115.3 minutes
Semi major axis: 7848 km
RCS: 0.6985 m2 (medium)
Launch date: September 17, 1975
Source: Commonwealth of Independent States (former USSR) (CIS)
Launch site: PLESETSK MISSILE AND SPACE COMPLEX (PKMTR)
aabbcc
Your satellite tracking list
Your tracking list is empty




NASA's NSSDC Master Catalog

Two Line Element Set (TLE):
1 08291U 75086G   18230.91190774  .00000001  00000-0  11332-3 0  9992
2 08291  74.0083 196.6794 0019156  86.2426 303.5258 12.48481103956352
Source of the keplerian elements: AFSPC